Find Starlink 36193

NORAD ID: 67099 Int'l Des: 2025-298 Owner: SPXS Country: US Constellation: starlink operational
LEOCIRCULAR

当前视图

正在加载3D地球...

About Starlink 36193

Starlink 36193 (NORAD 67099) is a starlink constellation satellite (v2 mini) launched Dec 14, 2025 by SPXS of US. It operates in LEO, CIRCULAR orbit with a mass of 575.00 kg.

关于 Starlink 36193

正在加载描述...

即将过境

Passes for default location (London). Set your location on the main map for personalized predictions.

高度历史

Loading altitude history...

两行轨道根数

1 67099U 25298AA 26194.88721926 .00001887 00000-0 16592-3 0 9992
2 67099 70.0001 56.1581 0002727 266.9466 93.1381 14.98334031 32123
Epoch: Jul 13, 2026 • Age: 8 hours

当前状态

高度 594.6 km
远地点 / 近地点 N/A
速度 7.56 km/s
星下点 -65.61°S, 4.23°W
发射日期 Dec 14, 2025
运行时间 0.5 years
类型 internet

技术详情

分类 Payload
质量 575.00 kg
干质量 530.00 kg
总质量 575.00 kg
长度 0.30 m
直径 4.10 m
跨度 29.00 m
形状 Box + pan
制造商 SPXS
平台类型 Starlink V2MO
阶段状态 In Orbit
所有者/国家 SPXS/US

Most Searched